<?xml version="1.0" encoding="UTF-8" standalone="no" ?>
<gpx xmlns="http://www.topografix.com/GPX/1/1" xmlns:xsi="http://www.w3.org/2001/XMLSchema-instance" xsi:schemaLocation="http://www.topografix.com/GPX/1/1 http://www.topografix.com/GPX/1/1/gpx.xsd" version="1.1" creator="VisuGPX - https://www.visugpx.com">
  <metadata>
    <name>Saint Didier sous Riverie g2bis</name>
  </metadata>
  <trk>
    <name><![CDATA[Saint Didier sous Riverie g2bis_1]]></name>
    <trkseg>
      <trkpt lat="45.59475" lon="4.60914">
        <ele>506</ele>
        <time>2017-05-31T19:15:20+02:00</time>
        <extensions>
          <visugpx:TrkExtension xmlns:visugpx="https://www.visugpx.com/editgpx/">
            <visugpx:node>1</visugpx:node>
            </visugpx:TrkExtension>
        </extensions>
      </trkpt>
      <trkpt lat="45.59467" lon="4.60902">
        <ele>503</ele>
        <time>2017-05-31T19:15:20+02:00</time>
      </trkpt>
      <trkpt lat="45.59458" lon="4.60892">
        <ele>500</ele>
        <time>2017-05-31T19:15:20+02:00</time>
      </trkpt>
      <trkpt lat="45.59455" lon="4.60879">
        <ele>498</ele>
        <time>2017-05-31T19:15:20+02:00</time>
      </trkpt>
      <trkpt lat="45.59462" lon="4.60869">
        <ele>499</ele>
        <time>2017-05-31T19:15:20+02:00</time>
      </trkpt>
      <trkpt lat="45.59458" lon="4.60854">
        <ele>497</ele>
        <time>2017-05-31T19:15:20+02:00</time>
      </trkpt>
      <trkpt lat="45.59464" lon="4.60826">
        <ele>496</ele>
        <time>2017-05-31T19:15:20+02:00</time>
      </trkpt>
      <trkpt lat="45.59466" lon="4.60809">
        <ele>495</ele>
        <time>2017-05-31T19:15:20+02:00</time>
      </trkpt>
      <trkpt lat="45.59422" lon="4.60867">
        <ele>488</ele>
        <time>2017-05-31T19:15:20+02:00</time>
      </trkpt>
      <trkpt lat="45.59413" lon="4.60868">
        <ele>486</ele>
        <time>2017-05-31T19:15:20+02:00</time>
      </trkpt>
      <trkpt lat="45.59424" lon="4.60833">
        <ele>485</ele>
        <time>2017-05-31T19:15:20+02:00</time>
      </trkpt>
      <trkpt lat="45.59425" lon="4.60822">
        <ele>485</ele>
        <time>2017-05-31T19:15:20+02:00</time>
      </trkpt>
      <trkpt lat="45.59422" lon="4.6081">
        <ele>483</ele>
        <time>2017-05-31T19:15:20+02:00</time>
      </trkpt>
      <trkpt lat="45.59409" lon="4.60855">
        <ele>484</ele>
        <time>2017-05-31T19:15:20+02:00</time>
      </trkpt>
      <trkpt lat="45.59397" lon="4.60872">
        <ele>485</ele>
        <time>2017-05-31T19:15:20+02:00</time>
      </trkpt>
      <trkpt lat="45.59386" lon="4.60877">
        <ele>484</ele>
        <time>2017-05-31T19:15:20+02:00</time>
      </trkpt>
      <trkpt lat="45.59371" lon="4.6088">
        <ele>483</ele>
        <time>2017-05-31T19:15:20+02:00</time>
      </trkpt>
      <trkpt lat="45.59309" lon="4.6092">
        <ele>481</ele>
        <time>2017-05-31T19:15:20+02:00</time>
      </trkpt>
      <trkpt lat="45.5928" lon="4.60926">
        <ele>478</ele>
        <time>2017-05-31T19:15:20+02:00</time>
      </trkpt>
      <trkpt lat="45.59273" lon="4.60931">
        <ele>478</ele>
        <time>2017-05-31T19:15:20+02:00</time>
      </trkpt>
      <trkpt lat="45.59266" lon="4.60938">
        <ele>478</ele>
        <time>2017-05-31T19:15:20+02:00</time>
      </trkpt>
      <trkpt lat="45.59209" lon="4.60986">
        <ele>480</ele>
        <time>2017-05-31T19:15:20+02:00</time>
      </trkpt>
      <trkpt lat="45.59151" lon="4.60991">
        <ele>477</ele>
        <time>2017-05-31T19:15:20+02:00</time>
      </trkpt>
      <trkpt lat="45.59132" lon="4.60995">
        <ele>476</ele>
        <time>2017-05-31T19:15:20+02:00</time>
      </trkpt>
      <trkpt lat="45.59116" lon="4.61004">
        <ele>475</ele>
        <time>2017-05-31T19:15:20+02:00</time>
      </trkpt>
      <trkpt lat="45.58954" lon="4.61172">
        <ele>480</ele>
        <time>2017-05-31T19:15:20+02:00</time>
      </trkpt>
      <trkpt lat="45.58936" lon="4.61181">
        <ele>479</ele>
        <time>2017-05-31T19:15:20+02:00</time>
      </trkpt>
      <trkpt lat="45.58914" lon="4.61184">
        <ele>479</ele>
        <time>2017-05-31T19:15:20+02:00</time>
      </trkpt>
      <trkpt lat="45.58897" lon="4.61179">
        <ele>481</ele>
        <time>2017-05-31T19:15:20+02:00</time>
      </trkpt>
      <trkpt lat="45.58869" lon="4.61159">
        <ele>483</ele>
        <time>2017-05-31T19:15:20+02:00</time>
      </trkpt>
      <trkpt lat="45.58829" lon="4.61073">
        <ele>480</ele>
        <time>2017-05-31T19:15:20+02:00</time>
      </trkpt>
      <trkpt lat="45.58805" lon="4.61055">
        <ele>479</ele>
        <time>2017-05-31T19:15:20+02:00</time>
      </trkpt>
      <trkpt lat="45.58785" lon="4.61048">
        <ele>478</ele>
        <time>2017-05-31T19:15:20+02:00</time>
      </trkpt>
      <trkpt lat="45.58618" lon="4.611">
        <ele>481</ele>
        <time>2017-05-31T19:15:20+02:00</time>
      </trkpt>
      <trkpt lat="45.58576" lon="4.61114">
        <ele>482</ele>
        <time>2017-05-31T19:15:20+02:00</time>
      </trkpt>
      <trkpt lat="45.58545" lon="4.61141">
        <ele>482</ele>
        <time>2017-05-31T19:15:20+02:00</time>
      </trkpt>
      <trkpt lat="45.58523" lon="4.61178">
        <ele>484</ele>
        <time>2017-05-31T19:15:20+02:00</time>
      </trkpt>
      <trkpt lat="45.58509" lon="4.61217">
        <ele>485</ele>
        <time>2017-05-31T19:15:20+02:00</time>
      </trkpt>
      <trkpt lat="45.58507" lon="4.61262">
        <ele>486</ele>
        <time>2017-05-31T19:15:20+02:00</time>
      </trkpt>
      <trkpt lat="45.58544" lon="4.61445">
        <ele>487</ele>
        <time>2017-05-31T19:15:20+02:00</time>
      </trkpt>
      <trkpt lat="45.58528" lon="4.61629">
        <ele>487</ele>
        <time>2017-05-31T19:15:20+02:00</time>
      </trkpt>
      <trkpt lat="45.58518" lon="4.61661">
        <ele>486</ele>
        <time>2017-05-31T19:15:20+02:00</time>
      </trkpt>
      <trkpt lat="45.58504" lon="4.61685">
        <ele>485</ele>
        <time>2017-05-31T19:15:20+02:00</time>
      </trkpt>
      <trkpt lat="45.5844" lon="4.61744">
        <ele>484</ele>
        <time>2017-05-31T19:15:20+02:00</time>
      </trkpt>
      <trkpt lat="45.58429" lon="4.61754">
        <ele>483</ele>
        <time>2017-05-31T19:15:20+02:00</time>
      </trkpt>
      <trkpt lat="45.58381" lon="4.61821">
        <ele>483</ele>
        <time>2017-05-31T19:15:20+02:00</time>
      </trkpt>
      <trkpt lat="45.58358" lon="4.61875">
        <ele>483</ele>
        <time>2017-05-31T19:15:20+02:00</time>
      </trkpt>
      <trkpt lat="45.5832" lon="4.6209">
        <ele>475</ele>
        <time>2017-05-31T19:15:20+02:00</time>
      </trkpt>
      <trkpt lat="45.58336" lon="4.62183">
        <ele>478</ele>
        <time>2017-05-31T19:15:20+02:00</time>
      </trkpt>
      <trkpt lat="45.58338" lon="4.62251">
        <ele>478</ele>
        <time>2017-05-31T19:15:20+02:00</time>
      </trkpt>
      <trkpt lat="45.58333" lon="4.62277">
        <ele>478</ele>
        <time>2017-05-31T19:15:20+02:00</time>
      </trkpt>
      <trkpt lat="45.58326" lon="4.62298">
        <ele>478</ele>
        <time>2017-05-31T19:15:20+02:00</time>
      </trkpt>
      <trkpt lat="45.58309" lon="4.62325">
        <ele>477</ele>
        <time>2017-05-31T19:15:20+02:00</time>
      </trkpt>
      <trkpt lat="45.58292" lon="4.62338">
        <ele>476</ele>
        <time>2017-05-31T19:15:20+02:00</time>
      </trkpt>
      <trkpt lat="45.58257" lon="4.62345">
        <ele>473</ele>
        <time>2017-05-31T19:15:20+02:00</time>
      </trkpt>
      <trkpt lat="45.58156" lon="4.62292">
        <ele>467</ele>
        <time>2017-05-31T19:15:20+02:00</time>
      </trkpt>
      <trkpt lat="45.58141" lon="4.62288">
        <ele>467</ele>
        <time>2017-05-31T19:15:20+02:00</time>
      </trkpt>
      <trkpt lat="45.57996" lon="4.623">
        <ele>465</ele>
        <time>2017-05-31T19:15:20+02:00</time>
      </trkpt>
      <trkpt lat="45.57709" lon="4.62362">
        <ele>444</ele>
        <time>2017-05-31T19:15:20+02:00</time>
      </trkpt>
      <trkpt lat="45.577" lon="4.62369">
        <ele>442</ele>
        <time>2017-05-31T19:15:20+02:00</time>
      </trkpt>
      <trkpt lat="45.57673" lon="4.62432">
        <ele>440</ele>
        <time>2017-05-31T19:15:20+02:00</time>
      </trkpt>
      <trkpt lat="45.57666" lon="4.62437">
        <ele>438</ele>
        <time>2017-05-31T19:15:20+02:00</time>
      </trkpt>
      <trkpt lat="45.57619" lon="4.6244">
        <ele>431</ele>
        <time>2017-05-31T19:15:20+02:00</time>
      </trkpt>
      <trkpt lat="45.57609" lon="4.6245">
        <ele>430</ele>
        <time>2017-05-31T19:15:20+02:00</time>
      </trkpt>
      <trkpt lat="45.57599" lon="4.62513">
        <ele>427</ele>
        <time>2017-05-31T19:15:20+02:00</time>
      </trkpt>
      <trkpt lat="45.57573" lon="4.62577">
        <ele>421</ele>
        <time>2017-05-31T19:15:20+02:00</time>
      </trkpt>
      <trkpt lat="45.5757" lon="4.62584">
        <ele>420</ele>
        <time>2017-05-31T19:15:20+02:00</time>
      </trkpt>
      <trkpt lat="45.57567" lon="4.62596">
        <ele>420</ele>
        <time>2017-05-31T19:15:20+02:00</time>
      </trkpt>
      <trkpt lat="45.57514" lon="4.62556">
        <ele>414</ele>
        <time>2017-05-31T19:15:20+02:00</time>
      </trkpt>
      <trkpt lat="45.57497" lon="4.62545">
        <ele>413</ele>
        <time>2017-05-31T19:15:20+02:00</time>
      </trkpt>
      <trkpt lat="45.57451" lon="4.6253">
        <ele>410</ele>
        <time>2017-05-31T19:15:20+02:00</time>
      </trkpt>
      <trkpt lat="45.57404" lon="4.62477">
        <ele>408</ele>
        <time>2017-05-31T19:15:20+02:00</time>
      </trkpt>
      <trkpt lat="45.57115" lon="4.62482">
        <ele>362</ele>
        <time>2017-05-31T19:15:20+02:00</time>
      </trkpt>
      <trkpt lat="45.57094" lon="4.62507">
        <ele>359</ele>
        <time>2017-05-31T19:15:20+02:00</time>
      </trkpt>
      <trkpt lat="45.57091" lon="4.6252">
        <ele>357</ele>
        <time>2017-05-31T19:15:20+02:00</time>
      </trkpt>
      <trkpt lat="45.57094" lon="4.62532">
        <ele>357</ele>
        <time>2017-05-31T19:15:20+02:00</time>
      </trkpt>
      <trkpt lat="45.57124" lon="4.62569">
        <ele>363</ele>
        <time>2017-05-31T19:15:20+02:00</time>
      </trkpt>
      <trkpt lat="45.57135" lon="4.6261">
        <ele>365</ele>
        <time>2017-05-31T19:15:20+02:00</time>
      </trkpt>
      <trkpt lat="45.57168" lon="4.62649">
        <ele>370</ele>
        <time>2017-05-31T19:15:20+02:00</time>
      </trkpt>
      <trkpt lat="45.5723" lon="4.62699">
        <ele>376</ele>
        <time>2017-05-31T19:15:20+02:00</time>
      </trkpt>
      <trkpt lat="45.57168" lon="4.62649">
        <ele>370</ele>
        <time>2017-05-31T19:15:20+02:00</time>
      </trkpt>
      <trkpt lat="45.57146" lon="4.62619">
        <ele>367</ele>
        <time>2017-05-31T19:15:20+02:00</time>
      </trkpt>
      <trkpt lat="45.57135" lon="4.6261">
        <ele>365</ele>
        <time>2017-05-31T19:15:20+02:00</time>
      </trkpt>
      <trkpt lat="45.57128" lon="4.62578">
        <ele>363</ele>
        <time>2017-05-31T19:15:20+02:00</time>
      </trkpt>
      <trkpt lat="45.57124" lon="4.62569">
        <ele>363</ele>
        <time>2017-05-31T19:15:20+02:00</time>
      </trkpt>
      <trkpt lat="45.57094" lon="4.62532">
        <ele>357</ele>
        <time>2017-05-31T19:15:20+02:00</time>
      </trkpt>
      <trkpt lat="45.57091" lon="4.6252">
        <ele>357</ele>
        <time>2017-05-31T19:15:20+02:00</time>
      </trkpt>
      <trkpt lat="45.57094" lon="4.62507">
        <ele>359</ele>
        <time>2017-05-31T19:15:20+02:00</time>
      </trkpt>
      <trkpt lat="45.57115" lon="4.62482">
        <ele>362</ele>
        <time>2017-05-31T19:15:20+02:00</time>
      </trkpt>
      <trkpt lat="45.57123" lon="4.62481">
        <ele>365</ele>
        <time>2017-05-31T19:15:20+02:00</time>
      </trkpt>
      <trkpt lat="45.57408" lon="4.6248">
        <ele>408</ele>
        <time>2017-05-31T19:15:20+02:00</time>
      </trkpt>
      <trkpt lat="45.57451" lon="4.6253">
        <ele>410</ele>
        <time>2017-05-31T19:15:20+02:00</time>
      </trkpt>
      <trkpt lat="45.57497" lon="4.62545">
        <ele>413</ele>
        <time>2017-05-31T19:15:20+02:00</time>
      </trkpt>
      <trkpt lat="45.57555" lon="4.62589">
        <ele>418</ele>
        <time>2017-05-31T19:15:20+02:00</time>
      </trkpt>
      <trkpt lat="45.57569" lon="4.62594">
        <ele>420</ele>
        <time>2017-05-31T19:15:20+02:00</time>
      </trkpt>
      <trkpt lat="45.5757" lon="4.62584">
        <ele>420</ele>
        <time>2017-05-31T19:15:20+02:00</time>
      </trkpt>
      <trkpt lat="45.57568" lon="4.62568">
        <ele>421</ele>
        <time>2017-05-31T19:15:20+02:00</time>
      </trkpt>
      <trkpt lat="45.57536" lon="4.62447">
        <ele>421</ele>
        <time>2017-05-31T19:15:20+02:00</time>
      </trkpt>
      <trkpt lat="45.5754" lon="4.62395">
        <ele>421</ele>
        <time>2017-05-31T19:15:20+02:00</time>
      </trkpt>
      <trkpt lat="45.57576" lon="4.6226">
        <ele>420</ele>
        <time>2017-05-31T19:15:20+02:00</time>
      </trkpt>
      <trkpt lat="45.57595" lon="4.62195">
        <ele>420</ele>
        <time>2017-05-31T19:15:20+02:00</time>
      </trkpt>
      <trkpt lat="45.57594" lon="4.62183">
        <ele>419</ele>
        <time>2017-05-31T19:15:20+02:00</time>
      </trkpt>
      <trkpt lat="45.57606" lon="4.62096">
        <ele>415</ele>
        <time>2017-05-31T19:15:20+02:00</time>
      </trkpt>
      <trkpt lat="45.57605" lon="4.62076">
        <ele>413</ele>
        <time>2017-05-31T19:15:20+02:00</time>
      </trkpt>
      <trkpt lat="45.57596" lon="4.62064">
        <ele>412</ele>
        <time>2017-05-31T19:15:20+02:00</time>
      </trkpt>
      <trkpt lat="45.57579" lon="4.62042">
        <ele>409</ele>
        <time>2017-05-31T19:15:20+02:00</time>
      </trkpt>
      <trkpt lat="45.57564" lon="4.61981">
        <ele>400</ele>
        <time>2017-05-31T19:15:20+02:00</time>
      </trkpt>
      <trkpt lat="45.57564" lon="4.61937">
        <ele>394</ele>
        <time>2017-05-31T19:15:20+02:00</time>
      </trkpt>
      <trkpt lat="45.57558" lon="4.61852">
        <ele>385</ele>
        <time>2017-05-31T19:15:20+02:00</time>
      </trkpt>
      <trkpt lat="45.57531" lon="4.61798">
        <ele>375</ele>
        <time>2017-05-31T19:15:20+02:00</time>
      </trkpt>
      <trkpt lat="45.57501" lon="4.61763">
        <ele>367</ele>
        <time>2017-05-31T19:15:20+02:00</time>
      </trkpt>
      <trkpt lat="45.57503" lon="4.61752">
        <ele>368</ele>
        <time>2017-05-31T19:15:20+02:00</time>
      </trkpt>
      <trkpt lat="45.57501" lon="4.61763">
        <ele>367</ele>
        <time>2017-05-31T19:15:20+02:00</time>
      </trkpt>
      <trkpt lat="45.5753" lon="4.618">
        <ele>375</ele>
        <time>2017-05-31T19:15:20+02:00</time>
      </trkpt>
      <trkpt lat="45.57551" lon="4.61842">
        <ele>382</ele>
        <time>2017-05-31T19:15:20+02:00</time>
      </trkpt>
      <trkpt lat="45.57548" lon="4.61833">
        <ele>381</ele>
        <time>2017-05-31T19:15:20+02:00</time>
      </trkpt>
      <trkpt lat="45.57591" lon="4.61778">
        <ele>388</ele>
        <time>2017-05-31T19:15:20+02:00</time>
      </trkpt>
      <trkpt lat="45.57594" lon="4.61765">
        <ele>388</ele>
        <time>2017-05-31T19:15:20+02:00</time>
      </trkpt>
      <trkpt lat="45.57594" lon="4.61753">
        <ele>387</ele>
        <time>2017-05-31T19:15:20+02:00</time>
      </trkpt>
      <trkpt lat="45.57569" lon="4.61717">
        <ele>380</ele>
        <time>2017-05-31T19:15:20+02:00</time>
      </trkpt>
      <trkpt lat="45.5756" lon="4.6171">
        <ele>378</ele>
        <time>2017-05-31T19:15:20+02:00</time>
      </trkpt>
      <trkpt lat="45.57546" lon="4.61694">
        <ele>373</ele>
        <time>2017-05-31T19:15:20+02:00</time>
      </trkpt>
      <trkpt lat="45.57539" lon="4.61675">
        <ele>370</ele>
        <time>2017-05-31T19:15:20+02:00</time>
      </trkpt>
      <trkpt lat="45.57541" lon="4.61664">
        <ele>370</ele>
        <time>2017-05-31T19:15:20+02:00</time>
      </trkpt>
      <trkpt lat="45.57587" lon="4.6159">
        <ele>367</ele>
        <time>2017-05-31T19:15:20+02:00</time>
      </trkpt>
      <trkpt lat="45.5762" lon="4.61563">
        <ele>368</ele>
        <time>2017-05-31T19:15:20+02:00</time>
      </trkpt>
      <trkpt lat="45.57612" lon="4.61551">
        <ele>366</ele>
        <time>2017-05-31T19:15:20+02:00</time>
      </trkpt>
      <trkpt lat="45.57579" lon="4.61536">
        <ele>360</ele>
        <time>2017-05-31T19:15:20+02:00</time>
      </trkpt>
      <trkpt lat="45.57568" lon="4.61535">
        <ele>359</ele>
        <time>2017-05-31T19:15:20+02:00</time>
      </trkpt>
      <trkpt lat="45.57538" lon="4.61543">
        <ele>356</ele>
        <time>2017-05-31T19:15:20+02:00</time>
      </trkpt>
      <trkpt lat="45.57528" lon="4.61552">
        <ele>355</ele>
        <time>2017-05-31T19:15:20+02:00</time>
      </trkpt>
      <trkpt lat="45.57499" lon="4.61555">
        <ele>352</ele>
        <time>2017-05-31T19:15:20+02:00</time>
      </trkpt>
      <trkpt lat="45.575" lon="4.61543">
        <ele>352</ele>
        <time>2017-05-31T19:15:20+02:00</time>
      </trkpt>
      <trkpt lat="45.57511" lon="4.615">
        <ele>354</ele>
        <time>2017-05-31T19:15:20+02:00</time>
      </trkpt>
      <trkpt lat="45.57505" lon="4.61475">
        <ele>353</ele>
        <time>2017-05-31T19:15:20+02:00</time>
      </trkpt>
      <trkpt lat="45.57505" lon="4.61458">
        <ele>353</ele>
        <time>2017-05-31T19:15:20+02:00</time>
      </trkpt>
      <trkpt lat="45.5751" lon="4.6143">
        <ele>353</ele>
        <time>2017-05-31T19:15:20+02:00</time>
      </trkpt>
      <trkpt lat="45.5751" lon="4.61415">
        <ele>353</ele>
        <time>2017-05-31T19:15:20+02:00</time>
      </trkpt>
      <trkpt lat="45.57521" lon="4.61411">
        <ele>354</ele>
        <time>2017-05-31T19:15:20+02:00</time>
      </trkpt>
      <trkpt lat="45.57534" lon="4.61397">
        <ele>355</ele>
        <time>2017-05-31T19:15:20+02:00</time>
      </trkpt>
      <trkpt lat="45.57539" lon="4.61387">
        <ele>356</ele>
        <time>2017-05-31T19:15:20+02:00</time>
      </trkpt>
      <trkpt lat="45.57548" lon="4.61382">
        <ele>357</ele>
        <time>2017-05-31T19:15:20+02:00</time>
      </trkpt>
      <trkpt lat="45.57545" lon="4.61367">
        <ele>358</ele>
        <time>2017-05-31T19:15:20+02:00</time>
      </trkpt>
      <trkpt lat="45.57489" lon="4.61319">
        <ele>361</ele>
        <time>2017-05-31T19:15:20+02:00</time>
      </trkpt>
      <trkpt lat="45.57496" lon="4.61315">
        <ele>360</ele>
        <time>2017-05-31T19:15:20+02:00</time>
      </trkpt>
      <trkpt lat="45.57506" lon="4.61318">
        <ele>360</ele>
        <time>2017-05-31T19:15:20+02:00</time>
      </trkpt>
      <trkpt lat="45.57568" lon="4.61325">
        <ele>364</ele>
        <time>2017-05-31T19:15:20+02:00</time>
      </trkpt>
      <trkpt lat="45.57577" lon="4.61322">
        <ele>365</ele>
        <time>2017-05-31T19:15:20+02:00</time>
      </trkpt>
      <trkpt lat="45.5758" lon="4.61309">
        <ele>366</ele>
        <time>2017-05-31T19:15:20+02:00</time>
      </trkpt>
      <trkpt lat="45.57564" lon="4.61278">
        <ele>368</ele>
        <time>2017-05-31T19:15:20+02:00</time>
      </trkpt>
      <trkpt lat="45.57561" lon="4.61265">
        <ele>369</ele>
        <time>2017-05-31T19:15:20+02:00</time>
      </trkpt>
      <trkpt lat="45.57568" lon="4.61247">
        <ele>371</ele>
        <time>2017-05-31T19:15:20+02:00</time>
      </trkpt>
      <trkpt lat="45.57553" lon="4.61097">
        <ele>383</ele>
        <time>2017-05-31T19:15:20+02:00</time>
        <extensions>
          <visugpx:TrkExtension xmlns:visugpx="https://www.visugpx.com/editgpx/">
            <visugpx:node>2</visugpx:node>
            </visugpx:TrkExtension>
        </extensions>
      </trkpt>
      <trkpt lat="45.57553" lon="4.6109">
        <ele>386.6</ele>
      </trkpt>
      <trkpt lat="45.57551" lon="4.61087">
        <ele>386.9</ele>
      </trkpt>
      <trkpt lat="45.5755" lon="4.61076">
        <ele>387.7</ele>
      </trkpt>
      <trkpt lat="45.57553" lon="4.61064">
        <ele>388.4</ele>
      </trkpt>
      <trkpt lat="45.57554" lon="4.6105">
        <ele>389.6</ele>
      </trkpt>
      <trkpt lat="45.57551" lon="4.60991">
        <ele>394.4</ele>
      </trkpt>
      <trkpt lat="45.57554" lon="4.60916">
        <ele>398.9</ele>
      </trkpt>
      <trkpt lat="45.57555" lon="4.60868">
        <ele>402.5</ele>
      </trkpt>
      <trkpt lat="45.57559" lon="4.60831">
        <ele>405.2</ele>
      </trkpt>
      <trkpt lat="45.57568" lon="4.60704">
        <ele>412.8</ele>
      </trkpt>
      <trkpt lat="45.57568" lon="4.6064">
        <ele>417.4</ele>
      </trkpt>
      <trkpt lat="45.57556" lon="4.60421">
        <ele>431.9</ele>
      </trkpt>
      <trkpt lat="45.57553" lon="4.60388">
        <ele>433.9</ele>
      </trkpt>
      <trkpt lat="45.57544" lon="4.60325">
        <ele>435.9</ele>
      </trkpt>
      <trkpt lat="45.57511" lon="4.60255">
        <ele>437.1</ele>
      </trkpt>
      <trkpt lat="45.57487" lon="4.60214">
        <ele>437.5</ele>
      </trkpt>
      <trkpt lat="45.57534" lon="4.60159">
        <ele>443.8</ele>
      </trkpt>
      <trkpt lat="45.57551" lon="4.60143">
        <ele>445.5</ele>
      </trkpt>
      <trkpt lat="45.57556" lon="4.60139">
        <ele>446</ele>
      </trkpt>
      <trkpt lat="45.57583" lon="4.60117">
        <ele>447.8</ele>
      </trkpt>
      <trkpt lat="45.57605" lon="4.60096">
        <ele>451</ele>
      </trkpt>
      <trkpt lat="45.5762" lon="4.6007">
        <ele>454</ele>
      </trkpt>
      <trkpt lat="45.57631" lon="4.60029">
        <ele>455.5</ele>
      </trkpt>
      <trkpt lat="45.5764" lon="4.60008">
        <ele>456.3</ele>
      </trkpt>
      <trkpt lat="45.57688" lon="4.59924">
        <ele>462.4</ele>
      </trkpt>
      <trkpt lat="45.57687" lon="4.599">
        <ele>465.1</ele>
      </trkpt>
      <trkpt lat="45.57694" lon="4.59905">
        <ele>464.3</ele>
      </trkpt>
      <trkpt lat="45.57706" lon="4.599">
        <ele>465</ele>
      </trkpt>
      <trkpt lat="45.5772" lon="4.59891">
        <ele>466.6</ele>
      </trkpt>
      <trkpt lat="45.57737" lon="4.59869">
        <ele>470.9</ele>
      </trkpt>
      <trkpt lat="45.57748" lon="4.59843">
        <ele>474.9</ele>
      </trkpt>
      <trkpt lat="45.57769" lon="4.5978">
        <ele>483.5</ele>
      </trkpt>
      <trkpt lat="45.57777" lon="4.59762">
        <ele>485.7</ele>
      </trkpt>
      <trkpt lat="45.5778" lon="4.59751">
        <ele>487.1</ele>
      </trkpt>
      <trkpt lat="45.5778" lon="4.59734">
        <ele>489.5</ele>
      </trkpt>
      <trkpt lat="45.57785" lon="4.59727">
        <ele>491.1</ele>
      </trkpt>
      <trkpt lat="45.57808" lon="4.59708">
        <ele>496.4</ele>
      </trkpt>
      <trkpt lat="45.57813" lon="4.59706">
        <ele>497.3</ele>
      </trkpt>
      <trkpt lat="45.57826" lon="4.59699">
        <ele>499.7</ele>
        <extensions>
          <visugpx:TrkExtension xmlns:visugpx="https://www.visugpx.com/editgpx/">
            <visugpx:node>3</visugpx:node>
            </visugpx:TrkExtension>
        </extensions>
      </trkpt>
      <trkpt lat="45.57837" lon="4.59693">
        <ele>501.7</ele>
      </trkpt>
      <trkpt lat="45.57859" lon="4.59684">
        <ele>505.5</ele>
      </trkpt>
      <trkpt lat="45.57864" lon="4.59681">
        <ele>506.3</ele>
      </trkpt>
      <trkpt lat="45.57868" lon="4.59678">
        <ele>507</ele>
      </trkpt>
      <trkpt lat="45.5787" lon="4.59669">
        <ele>507.8</ele>
      </trkpt>
      <trkpt lat="45.57876" lon="4.59669">
        <ele>508.5</ele>
      </trkpt>
      <trkpt lat="45.57909" lon="4.59661">
        <ele>513.8</ele>
      </trkpt>
      <trkpt lat="45.5794" lon="4.59643">
        <ele>515</ele>
      </trkpt>
      <trkpt lat="45.57948" lon="4.59639">
        <ele>515.1</ele>
      </trkpt>
      <trkpt lat="45.5798" lon="4.59624">
        <ele>517.9</ele>
      </trkpt>
      <trkpt lat="45.58001" lon="4.5962">
        <ele>519.8</ele>
      </trkpt>
      <trkpt lat="45.58053" lon="4.59612">
        <ele>524.6</ele>
      </trkpt>
      <trkpt lat="45.5808" lon="4.59598">
        <ele>526.9</ele>
      </trkpt>
      <trkpt lat="45.58113" lon="4.59578">
        <ele>530.1</ele>
      </trkpt>
      <trkpt lat="45.58157" lon="4.59545">
        <ele>534.6</ele>
      </trkpt>
      <trkpt lat="45.58192" lon="4.59512">
        <ele>538</ele>
      </trkpt>
      <trkpt lat="45.582" lon="4.59496">
        <ele>539.5</ele>
      </trkpt>
      <trkpt lat="45.58209" lon="4.59486">
        <ele>539.1</ele>
      </trkpt>
      <trkpt lat="45.58217" lon="4.59477">
        <ele>538.6</ele>
      </trkpt>
      <trkpt lat="45.58252" lon="4.59438">
        <ele>536.3</ele>
      </trkpt>
      <trkpt lat="45.5829" lon="4.59383">
        <ele>533.2</ele>
      </trkpt>
      <trkpt lat="45.58309" lon="4.5936">
        <ele>531.3</ele>
      </trkpt>
      <trkpt lat="45.58313" lon="4.59353">
        <ele>531</ele>
      </trkpt>
      <trkpt lat="45.5832" lon="4.59343">
        <ele>530.2</ele>
      </trkpt>
      <trkpt lat="45.58347" lon="4.59298">
        <ele>528.1</ele>
      </trkpt>
      <trkpt lat="45.58368" lon="4.59261">
        <ele>525.4</ele>
      </trkpt>
      <trkpt lat="45.58374" lon="4.59242">
        <ele>524.9</ele>
      </trkpt>
      <trkpt lat="45.58381" lon="4.5919">
        <ele>523</ele>
      </trkpt>
      <trkpt lat="45.58381" lon="4.5912">
        <ele>520.2</ele>
      </trkpt>
      <trkpt lat="45.58376" lon="4.59074">
        <ele>517.5</ele>
      </trkpt>
      <trkpt lat="45.58333" lon="4.58899">
        <ele>512.9</ele>
      </trkpt>
      <trkpt lat="45.58327" lon="4.58866">
        <ele>513.3</ele>
      </trkpt>
      <trkpt lat="45.58328" lon="4.5885">
        <ele>512.9</ele>
      </trkpt>
      <trkpt lat="45.58336" lon="4.58835">
        <ele>511.7</ele>
      </trkpt>
      <trkpt lat="45.58349" lon="4.58839">
        <ele>510.4</ele>
      </trkpt>
      <trkpt lat="45.5839" lon="4.58862">
        <ele>507</ele>
      </trkpt>
      <trkpt lat="45.58414" lon="4.5887">
        <ele>509.6</ele>
      </trkpt>
      <trkpt lat="45.58532" lon="4.58974">
        <ele>512.8</ele>
      </trkpt>
      <trkpt lat="45.58566" lon="4.5902">
        <ele>514</ele>
      </trkpt>
      <trkpt lat="45.58587" lon="4.59051">
        <ele>514.1</ele>
      </trkpt>
      <trkpt lat="45.58605" lon="4.59074">
        <ele>514.3</ele>
      </trkpt>
      <trkpt lat="45.5863" lon="4.59095">
        <ele>514.2</ele>
      </trkpt>
      <trkpt lat="45.58635" lon="4.59095">
        <ele>514.8</ele>
      </trkpt>
      <trkpt lat="45.58639" lon="4.59094">
        <ele>515.5</ele>
        <extensions>
          <visugpx:TrkExtension xmlns:visugpx="https://www.visugpx.com/editgpx/">
            <visugpx:node>4</visugpx:node>
            </visugpx:TrkExtension>
        </extensions>
      </trkpt>
      <trkpt lat="45.58641" lon="4.59094">
        <ele>515.3</ele>
      </trkpt>
      <trkpt lat="45.58662" lon="4.59074">
        <ele>517</ele>
      </trkpt>
      <trkpt lat="45.5868" lon="4.59045">
        <ele>520</ele>
      </trkpt>
      <trkpt lat="45.58702" lon="4.59011">
        <ele>523.7</ele>
      </trkpt>
      <trkpt lat="45.58714" lon="4.58993">
        <ele>526.4</ele>
      </trkpt>
      <trkpt lat="45.58727" lon="4.58961">
        <ele>531.9</ele>
      </trkpt>
      <trkpt lat="45.58737" lon="4.58941">
        <ele>535.1</ele>
      </trkpt>
      <trkpt lat="45.58758" lon="4.58915">
        <ele>536.8</ele>
      </trkpt>
      <trkpt lat="45.58764" lon="4.58908">
        <ele>536.9</ele>
      </trkpt>
      <trkpt lat="45.58769" lon="4.58901">
        <ele>537</ele>
      </trkpt>
      <trkpt lat="45.58777" lon="4.58877">
        <ele>539.3</ele>
      </trkpt>
      <trkpt lat="45.58793" lon="4.58811">
        <ele>542.9</ele>
      </trkpt>
      <trkpt lat="45.58797" lon="4.58782">
        <ele>544.3</ele>
      </trkpt>
      <trkpt lat="45.58811" lon="4.58722">
        <ele>545.5</ele>
      </trkpt>
      <trkpt lat="45.58845" lon="4.5867">
        <ele>543.5</ele>
      </trkpt>
      <trkpt lat="45.5885" lon="4.58666">
        <ele>543.6</ele>
      </trkpt>
      <trkpt lat="45.58861" lon="4.58664">
        <ele>542</ele>
      </trkpt>
      <trkpt lat="45.58877" lon="4.58674">
        <ele>539.9</ele>
      </trkpt>
      <trkpt lat="45.5889" lon="4.58678">
        <ele>539.1</ele>
      </trkpt>
      <trkpt lat="45.58903" lon="4.58677">
        <ele>539.8</ele>
      </trkpt>
      <trkpt lat="45.58928" lon="4.58664">
        <ele>540.7</ele>
      </trkpt>
      <trkpt lat="45.58955" lon="4.5864">
        <ele>537.4</ele>
      </trkpt>
      <trkpt lat="45.5899" lon="4.5858">
        <ele>536.2</ele>
      </trkpt>
      <trkpt lat="45.59011" lon="4.58543">
        <ele>535.3</ele>
      </trkpt>
      <trkpt lat="45.59024" lon="4.58504">
        <ele>536.7</ele>
      </trkpt>
      <trkpt lat="45.59034" lon="4.58448">
        <ele>539.6</ele>
      </trkpt>
      <trkpt lat="45.59046" lon="4.58395">
        <ele>540.5</ele>
      </trkpt>
      <trkpt lat="45.59059" lon="4.5836">
        <ele>544.7</ele>
      </trkpt>
      <trkpt lat="45.59079" lon="4.58376">
        <ele>537</ele>
      </trkpt>
      <trkpt lat="45.59099" lon="4.58375">
        <ele>534</ele>
      </trkpt>
      <trkpt lat="45.59123" lon="4.58351">
        <ele>534.4</ele>
      </trkpt>
      <trkpt lat="45.59129" lon="4.58348">
        <ele>534.3</ele>
      </trkpt>
      <trkpt lat="45.59134" lon="4.58348">
        <ele>533.9</ele>
      </trkpt>
      <trkpt lat="45.5914" lon="4.58354">
        <ele>533</ele>
      </trkpt>
      <trkpt lat="45.59168" lon="4.58411">
        <ele>531.8</ele>
      </trkpt>
      <trkpt lat="45.59179" lon="4.58422">
        <ele>531.7</ele>
      </trkpt>
      <trkpt lat="45.59188" lon="4.58425">
        <ele>532</ele>
      </trkpt>
      <trkpt lat="45.59209" lon="4.58419">
        <ele>532.7</ele>
      </trkpt>
      <trkpt lat="45.59231" lon="4.58407">
        <ele>534.2</ele>
      </trkpt>
      <trkpt lat="45.59305" lon="4.58393">
        <ele>527.5</ele>
      </trkpt>
      <trkpt lat="45.59348" lon="4.5839">
        <ele>520.6</ele>
      </trkpt>
      <trkpt lat="45.59375" lon="4.58398">
        <ele>517.4</ele>
      </trkpt>
      <trkpt lat="45.59399" lon="4.58395">
        <ele>517.9</ele>
      </trkpt>
      <trkpt lat="45.59411" lon="4.58395">
        <ele>518.3</ele>
      </trkpt>
      <trkpt lat="45.59413" lon="4.58396">
        <ele>518.4</ele>
      </trkpt>
      <trkpt lat="45.59432" lon="4.58395">
        <ele>519.7</ele>
      </trkpt>
      <trkpt lat="45.59442" lon="4.58418">
        <ele>522.9</ele>
        <extensions>
          <visugpx:TrkExtension xmlns:visugpx="https://www.visugpx.com/editgpx/">
            <visugpx:node>5</visugpx:node>
            </visugpx:TrkExtension>
        </extensions>
      </trkpt>
      <trkpt lat="45.59444" lon="4.58424">
        <ele>524</ele>
      </trkpt>
      <trkpt lat="45.59432" lon="4.58438">
        <ele>525.1</ele>
      </trkpt>
      <trkpt lat="45.59395" lon="4.58473">
        <ele>529.1</ele>
      </trkpt>
      <trkpt lat="45.59353" lon="4.58505">
        <ele>528.6</ele>
      </trkpt>
      <trkpt lat="45.59319" lon="4.58535">
        <ele>529.5</ele>
      </trkpt>
      <trkpt lat="45.59295" lon="4.58567">
        <ele>532.3</ele>
      </trkpt>
      <trkpt lat="45.59267" lon="4.58615">
        <ele>537.4</ele>
      </trkpt>
      <trkpt lat="45.59231" lon="4.58668">
        <ele>538.8</ele>
      </trkpt>
      <trkpt lat="45.59201" lon="4.58727">
        <ele>539.7</ele>
      </trkpt>
      <trkpt lat="45.59175" lon="4.58801">
        <ele>539</ele>
      </trkpt>
      <trkpt lat="45.59163" lon="4.58823">
        <ele>535.8</ele>
      </trkpt>
      <trkpt lat="45.59153" lon="4.5886">
        <ele>534</ele>
      </trkpt>
      <trkpt lat="45.59155" lon="4.58891">
        <ele>533.8</ele>
      </trkpt>
      <trkpt lat="45.59161" lon="4.58919">
        <ele>535.2</ele>
      </trkpt>
      <trkpt lat="45.59164" lon="4.58953">
        <ele>537.2</ele>
      </trkpt>
      <trkpt lat="45.59164" lon="4.58961">
        <ele>538</ele>
      </trkpt>
      <trkpt lat="45.59164" lon="4.58987">
        <ele>541.8</ele>
      </trkpt>
      <trkpt lat="45.59156" lon="4.5902">
        <ele>544.1</ele>
      </trkpt>
      <trkpt lat="45.59155" lon="4.59053">
        <ele>547.5</ele>
      </trkpt>
      <trkpt lat="45.59166" lon="4.59067">
        <ele>551.4</ele>
      </trkpt>
      <trkpt lat="45.59175" lon="4.59061">
        <ele>554.4</ele>
      </trkpt>
      <trkpt lat="45.59192" lon="4.59059">
        <ele>560</ele>
      </trkpt>
      <trkpt lat="45.592" lon="4.59064">
        <ele>561.7</ele>
      </trkpt>
      <trkpt lat="45.59219" lon="4.59071">
        <ele>566.2</ele>
      </trkpt>
      <trkpt lat="45.59239" lon="4.59089">
        <ele>570.2</ele>
      </trkpt>
      <trkpt lat="45.59246" lon="4.5909">
        <ele>571.8</ele>
      </trkpt>
      <trkpt lat="45.59254" lon="4.59087">
        <ele>574</ele>
      </trkpt>
      <trkpt lat="45.59265" lon="4.59077">
        <ele>577.3</ele>
      </trkpt>
      <trkpt lat="45.59281" lon="4.59059">
        <ele>583.2</ele>
      </trkpt>
      <trkpt lat="45.5929" lon="4.59056">
        <ele>585.6</ele>
      </trkpt>
      <trkpt lat="45.59298" lon="4.59055">
        <ele>587.4</ele>
      </trkpt>
      <trkpt lat="45.59322" lon="4.59059">
        <ele>592.5</ele>
      </trkpt>
      <trkpt lat="45.5933" lon="4.5906">
        <ele>594.2</ele>
      </trkpt>
      <trkpt lat="45.59367" lon="4.59089">
        <ele>597.1</ele>
      </trkpt>
      <trkpt lat="45.59385" lon="4.59113">
        <ele>597.8</ele>
      </trkpt>
      <trkpt lat="45.59404" lon="4.59155">
        <ele>600.3</ele>
      </trkpt>
      <trkpt lat="45.59403" lon="4.59187">
        <ele>600.8</ele>
      </trkpt>
      <trkpt lat="45.59405" lon="4.59205">
        <ele>601.9</ele>
      </trkpt>
      <trkpt lat="45.59415" lon="4.59216">
        <ele>603.6</ele>
      </trkpt>
      <trkpt lat="45.59445" lon="4.59234">
        <ele>606.7</ele>
      </trkpt>
      <trkpt lat="45.59461" lon="4.59255">
        <ele>609.5</ele>
      </trkpt>
      <trkpt lat="45.59443" lon="4.59262">
        <ele>604.6</ele>
      </trkpt>
      <trkpt lat="45.59414" lon="4.59277">
        <ele>601.1</ele>
      </trkpt>
      <trkpt lat="45.59395" lon="4.59299">
        <ele>599.1</ele>
      </trkpt>
      <trkpt lat="45.59369" lon="4.5935">
        <ele>596.5</ele>
      </trkpt>
      <trkpt lat="45.59363" lon="4.59353">
        <ele>596.7</ele>
        <extensions>
          <visugpx:TrkExtension xmlns:visugpx="https://www.visugpx.com/editgpx/">
            <visugpx:node>6</visugpx:node>
            </visugpx:TrkExtension>
        </extensions>
      </trkpt>
      <trkpt lat="45.59347" lon="4.59364">
        <ele>595.1</ele>
      </trkpt>
      <trkpt lat="45.59307" lon="4.59413">
        <ele>586.5</ele>
      </trkpt>
      <trkpt lat="45.59279" lon="4.59443">
        <ele>581.3</ele>
      </trkpt>
      <trkpt lat="45.59247" lon="4.59486">
        <ele>574.2</ele>
      </trkpt>
      <trkpt lat="45.59228" lon="4.5951">
        <ele>571.2</ele>
      </trkpt>
      <trkpt lat="45.59216" lon="4.59534">
        <ele>570.4</ele>
      </trkpt>
      <trkpt lat="45.59195" lon="4.59568">
        <ele>569.5</ele>
      </trkpt>
      <trkpt lat="45.59173" lon="4.59593">
        <ele>566.8</ele>
      </trkpt>
      <trkpt lat="45.59159" lon="4.59633">
        <ele>562.4</ele>
      </trkpt>
      <trkpt lat="45.59142" lon="4.5965">
        <ele>558.3</ele>
      </trkpt>
      <trkpt lat="45.59131" lon="4.59676">
        <ele>553.5</ele>
      </trkpt>
      <trkpt lat="45.59121" lon="4.5977">
        <ele>540.2</ele>
      </trkpt>
      <trkpt lat="45.59123" lon="4.59777">
        <ele>539.4</ele>
      </trkpt>
      <trkpt lat="45.59116" lon="4.5978">
        <ele>538</ele>
      </trkpt>
      <trkpt lat="45.59092" lon="4.5977">
        <ele>534.3</ele>
      </trkpt>
      <trkpt lat="45.5907" lon="4.59767">
        <ele>527.8</ele>
      </trkpt>
      <trkpt lat="45.59058" lon="4.59762">
        <ele>524.2</ele>
      </trkpt>
      <trkpt lat="45.59047" lon="4.5978">
        <ele>517.9</ele>
      </trkpt>
      <trkpt lat="45.5907" lon="4.59869">
        <ele>506.8</ele>
      </trkpt>
      <trkpt lat="45.5907" lon="4.59908">
        <ele>501.1</ele>
      </trkpt>
      <trkpt lat="45.59062" lon="4.59904">
        <ele>501.5</ele>
      </trkpt>
      <trkpt lat="45.5905" lon="4.59912">
        <ele>500.3</ele>
      </trkpt>
      <trkpt lat="45.5902" lon="4.59967">
        <ele>493.3</ele>
      </trkpt>
      <trkpt lat="45.59023" lon="4.59982">
        <ele>492.3</ele>
      </trkpt>
      <trkpt lat="45.59036" lon="4.6001">
        <ele>489.7</ele>
      </trkpt>
      <trkpt lat="45.59033" lon="4.60026">
        <ele>487.4</ele>
      </trkpt>
      <trkpt lat="45.59004" lon="4.60064">
        <ele>480.5</ele>
      </trkpt>
      <trkpt lat="45.58994" lon="4.60085">
        <ele>477.4</ele>
      </trkpt>
      <trkpt lat="45.58989" lon="4.60123">
        <ele>472.5</ele>
        <extensions>
          <visugpx:TrkExtension xmlns:visugpx="https://www.visugpx.com/editgpx/">
            <visugpx:node>7</visugpx:node>
            </visugpx:TrkExtension>
        </extensions>
      </trkpt>
      <trkpt lat="45.58992" lon="4.60238">
        <ele>462</ele>
        <time>2017-05-31T19:15:20+02:00</time>
        <extensions>
          <visugpx:TrkExtension xmlns:visugpx="https://www.visugpx.com/editgpx/">
            <visugpx:node>4</visugpx:node>
            </visugpx:TrkExtension>
        </extensions>
      </trkpt>
      <trkpt lat="45.59024" lon="4.60338">
        <ele>460</ele>
        <time>2017-05-31T19:15:20+02:00</time>
      </trkpt>
      <trkpt lat="45.59038" lon="4.60358">
        <ele>461</ele>
        <time>2017-05-31T19:15:20+02:00</time>
      </trkpt>
      <trkpt lat="45.59089" lon="4.604">
        <ele>465</ele>
        <time>2017-05-31T19:15:20+02:00</time>
      </trkpt>
      <trkpt lat="45.59122" lon="4.60438">
        <ele>468</ele>
        <time>2017-05-31T19:15:20+02:00</time>
      </trkpt>
      <trkpt lat="45.59157" lon="4.60512">
        <ele>471</ele>
        <time>2017-05-31T19:15:20+02:00</time>
      </trkpt>
      <trkpt lat="45.59177" lon="4.60602">
        <ele>469</ele>
        <time>2017-05-31T19:15:20+02:00</time>
      </trkpt>
      <trkpt lat="45.59186" lon="4.60625">
        <ele>469</ele>
        <time>2017-05-31T19:15:20+02:00</time>
      </trkpt>
      <trkpt lat="45.5919" lon="4.60637">
        <ele>470</ele>
        <time>2017-05-31T19:15:20+02:00</time>
      </trkpt>
      <trkpt lat="45.59199" lon="4.60653">
        <ele>470</ele>
        <time>2017-05-31T19:15:20+02:00</time>
      </trkpt>
      <trkpt lat="45.59229" lon="4.60678">
        <ele>471</ele>
        <time>2017-05-31T19:15:20+02:00</time>
      </trkpt>
      <trkpt lat="45.59368" lon="4.60707">
        <ele>482</ele>
        <time>2017-05-31T19:15:20+02:00</time>
      </trkpt>
      <trkpt lat="45.59386" lon="4.60715">
        <ele>481</ele>
        <time>2017-05-31T19:15:20+02:00</time>
      </trkpt>
      <trkpt lat="45.59406" lon="4.60733">
        <ele>480</ele>
        <time>2017-05-31T19:15:20+02:00</time>
      </trkpt>
      <trkpt lat="45.59412" lon="4.60745">
        <ele>479</ele>
        <time>2017-05-31T19:15:20+02:00</time>
      </trkpt>
      <trkpt lat="45.59421" lon="4.60775">
        <ele>481</ele>
        <time>2017-05-31T19:15:20+02:00</time>
      </trkpt>
      <trkpt lat="45.59422" lon="4.6081">
        <ele>483</ele>
        <time>2017-05-31T19:15:20+02:00</time>
      </trkpt>
      <trkpt lat="45.59425" lon="4.60822">
        <ele>485</ele>
        <time>2017-05-31T19:15:20+02:00</time>
      </trkpt>
      <trkpt lat="45.59424" lon="4.60833">
        <ele>485</ele>
        <time>2017-05-31T19:15:20+02:00</time>
      </trkpt>
      <trkpt lat="45.59412" lon="4.60874">
        <ele>487</ele>
        <time>2017-05-31T19:15:20+02:00</time>
      </trkpt>
      <trkpt lat="45.59422" lon="4.60867">
        <ele>488</ele>
        <time>2017-05-31T19:15:20+02:00</time>
      </trkpt>
      <trkpt lat="45.59467" lon="4.60816">
        <ele>496</ele>
        <time>2017-05-31T19:15:20+02:00</time>
      </trkpt>
      <trkpt lat="45.59464" lon="4.60826">
        <ele>496</ele>
        <time>2017-05-31T19:15:20+02:00</time>
      </trkpt>
      <trkpt lat="45.59458" lon="4.60854">
        <ele>497</ele>
        <time>2017-05-31T19:15:20+02:00</time>
      </trkpt>
      <trkpt lat="45.59462" lon="4.60869">
        <ele>499</ele>
        <time>2017-05-31T19:15:20+02:00</time>
      </trkpt>
      <trkpt lat="45.59474" lon="4.60893">
        <ele>504</ele>
        <time>2017-05-31T19:15:20+02:00</time>
      </trkpt>
      <trkpt lat="45.59467" lon="4.60902">
        <ele>503</ele>
        <time>2017-05-31T19:15:20+02:00</time>
      </trkpt>
      <trkpt lat="45.59475" lon="4.60914">
        <ele>506</ele>
        <time>2017-05-31T19:15:20+02:00</time>
      </trkpt>
      <trkpt lat="45.59477" lon="4.60926">
        <ele>506</ele>
        <time>2017-05-31T19:15:20+02:00</time>
      </trkpt>
    </trkseg>
  </trk>
</gpx>